When you browse on this site, cookies collect data to enhance your experience and personalize the content and advertising you see.
Visit our Privacy Policy to learn more. By continuing to use the site, you agree to this use of cookies and data.
  • In Switzerland
  • List of Countries
  • For 7 days
  • Water Temperature
  • Weather Map
  • Weather Widgets
  • user-avatar
    Login

    Hourly Weather Mérida

    Today, 21 August, Wednesday

    Time Temperature Precipitation Wind Pressure Humidity
    00:00 +13°C° 0 mm 2 mps 593 mmHg 83%
    01:00 +13°C° 0 mm 2 mps 592 mmHg 84%
    02:00 +13°C° 0 mm 2 mps 592 mmHg 84%
    03:00 +13°C° 0 mm 2 mps 592 mmHg 83%
    04:00 +13°C° 0 mm 2 mps 592 mmHg 82%
    05:00 +14°C° 0 mm 2 mps 593 mmHg 80%
    06:00 +15°C° 0 mm 2 mps 594 mmHg 78%
    07:00 +16°C° 0 mm 2 mps 595 mmHg 77%
    08:00 +18°C° 0 mm 2 mps 596 mmHg 70%
    09:00 +20°C° 0 mm 2 mps 596 mmHg 63%
    10:00 +23°C° 0 mm 2 mps 597 mmHg 56%
    11:00 +23°C° 0.4 mm 2 mps 597 mmHg 60%
    12:00 +23°C° 0.4 mm 2 mps 596 mmHg 63%
    13:00 +23°C° 0.4 mm 2 mps 596 mmHg 66%
    14:00 +21°C° 0.7 mm 2 mps 595 mmHg 71%
    15:00 +20°C° 0.7 mm 2 mps 594 mmHg 76%
    16:00 +20°C° 0.7 mm 1 mps 593 mmHg 81%
    17:00 +19°C° 0.2 mm 1 mps 593 mmHg 85%
    18:00 +18°C° 0.2 mm 1 mps 593 mmHg 89%
    19:00 +16°C° 0.2 mm 1 mps 593 mmHg 92%
    20:00 +15°C° 0 mm 1 mps 593 mmHg 90%
    21:00 +15°C° 0 mm 1 mps 593 mmHg 88%
    22:00 +14°C° 0 mm 1 mps 593 mmHg 86%
    23:00 +14°C° 0 mm 1 mps 593 mmHg 84%

    Tomorrow, 22 August, Thursday

    Time Temperature Precipitation Wind Pressure Humidity
    00:00 +14°C° 0 mm 1 mps 592 mmHg 82%
    01:00 +13°C° 0 mm 2 mps 592 mmHg 80%
    02:00 +13°C° 0 mm 2 mps 592 mmHg 79%
    03:00 +13°C° 0 mm 2 mps 592 mmHg 79%
    04:00 +13°C° 0 mm 2 mps 592 mmHg 78%
    05:00 +14°C° 0 mm 2 mps 593 mmHg 76%
    06:00 +15°C° 0 mm 1 mps 594 mmHg 74%
    07:00 +18°C° 0 mm 1 mps 594 mmHg 72%
    08:00 +19°C° 0 mm 2 mps 595 mmHg 67%
    09:00 +20°C° 0 mm 2 mps 596 mmHg 62%
    10:00 +23°C° 0 mm 2 mps 597 mmHg 56%
    11:00 +23°C° 0.4 mm 2 mps 596 mmHg 63%
    12:00 +21°C° 0.4 mm 2 mps 595 mmHg 70%
    13:00 +21°C° 0.4 mm 2 mps 594 mmHg 77%
    14:00 +20°C° 1.1 mm 2 mps 594 mmHg 80%
    15:00 +21°C° 1.1 mm 1 mps 594 mmHg 83%
    16:00 +20°C° 1.1 mm 1 mps 593 mmHg 86%
    17:00 +19°C° 0.7 mm 1 mps 593 mmHg 89%
    18:00 +18°C° 0.7 mm 1 mps 593 mmHg 91%
    19:00 +16°C° 0.7 mm 1 mps 593 mmHg 94%
    20:00 +16°C° 0.1 mm 1 mps 593 mmHg 93%
    21:00 +15°C° 0.1 mm 1 mps 593 mmHg 91%
    22:00 +15°C° 0.1 mm 2 mps 593 mmHg 90%
    23:00 +15°C° 0 mm 2 mps 593 mmHg 90%

    Day after tomorrow, 23 August, Friday

    Time Temperature Precipitation Wind Pressure Humidity
    00:00 +15°C° 0 mm 2 mps 593 mmHg 89%
    01:00 +14°C° 0 mm 1 mps 592 mmHg 89%
    02:00 +14°C° 0 mm 2 mps 592 mmHg 88%
    03:00 +14°C° 0 mm 2 mps 592 mmHg 88%
    04:00 +14°C° 0 mm 2 mps 592 mmHg 88%
    05:00 +15°C° 0 mm 2 mps 593 mmHg 86%
    06:00 +16°C° 0 mm 2 mps 594 mmHg 84%
    07:00 +17°C° 0 mm 2 mps 594 mmHg 82%
    08:00 +18°C° 0.1 mm 2 mps 595 mmHg 79%
    09:00 +20°C° 0.1 mm 2 mps 596 mmHg 75%
    10:00 +21°C° 0.1 mm 2 mps 596 mmHg 72%
    11:00 +21°C° 1 mm 2 mps 596 mmHg 76%
    12:00 +20°C° 1 mm 2 mps 595 mmHg 80%
    13:00 +20°C° 1 mm 2 mps 594 mmHg 84%
    14:00 +19°C° 1.4 mm 2 mps 594 mmHg 85%
    15:00 +19°C° 1.4 mm 2 mps 593 mmHg 87%
    16:00 +18°C° 1.4 mm 2 mps 593 mmHg 89%
    17:00 +17°C° 2.4 mm 2 mps 593 mmHg 91%
    18:00 +17°C° 2.4 mm 2 mps 593 mmHg 93%
    19:00 +16°C° 2.4 mm 2 mps 593 mmHg 95%
    20:00 +16°C° 2.7 mm 2 mps 593 mmHg 94%
    21:00 +16°C° 2.7 mm 2 mps 594 mmHg 94%
    22:00 +15°C° 2.7 mm 2 mps 594 mmHg 93%
    23:00 +15°C° 0.7 mm 2 mps 594 mmHg 93%

    24 August, Saturday

    Time Temperature Precipitation Wind Pressure Humidity
    00:00 +15°C° 0.7 mm 2 mps 593 mmHg 93%
    01:00 +15°C° 0.7 mm 2 mps 593 mmHg 92%
    02:00 +15°C° 0 mm 2 mps 592 mmHg 92%
    03:00 +15°C° 0 mm 2 mps 592 mmHg 91%
    04:00 +14°C° 0 mm 2 mps 592 mmHg 91%
    05:00 +15°C° 0 mm 2 mps 593 mmHg 89%
    06:00 +16°C° 0 mm 2 mps 593 mmHg 88%
    07:00 +16°C° 0 mm 2 mps 594 mmHg 86%
    08:00 +18°C° 0.2 mm 2 mps 595 mmHg 82%
    09:00 +19°C° 0.2 mm 2 mps 595 mmHg 78%
    10:00 +20°C° 0.2 mm 2 mps 596 mmHg 74%
    11:00 +20°C° 1 mm 2 mps 595 mmHg 77%
    12:00 +20°C° 1 mm 2 mps 595 mmHg 79%
    13:00 +20°C° 1 mm 2 mps 594 mmHg 82%
    14:00 +19°C° 0.8 mm 2 mps 594 mmHg 82%
    15:00 +19°C° 0.8 mm 2 mps 593 mmHg 81%
    16:00 +20°C° 0.8 mm 1 mps 593 mmHg 80%
    17:00 +19°C° 0.3 mm 1 mps 593 mmHg 84%
    18:00 +18°C° 0.3 mm 1 mps 592 mmHg 87%
    19:00 +15°C° 0.3 mm 1 mps 592 mmHg 90%
    20:00 +15°C° 0 mm 1 mps 592 mmHg 88%
    21:00 +15°C° 0 mm 2 mps 593 mmHg 87%
    22:00 +14°C° 0 mm 2 mps 593 mmHg 85%
    23:00 +14°C° 0 mm 2 mps 593 mmHg 84%

    25 August, Sunday

    Time Temperature Precipitation Wind Pressure Humidity
    00:00 +14°C° 0 mm 2 mps 592 mmHg 84%
    01:00 +14°C° 0 mm 2 mps 592 mmHg 83%
    02:00 +14°C° 0 mm 2 mps 592 mmHg 84%
    03:00 +14°C° 0 mm 2 mps 592 mmHg 85%
    04:00 +14°C° 0 mm 2 mps 592 mmHg 86%
    05:00 +15°C° 0 mm 2 mps 592 mmHg 85%
    06:00 +16°C° 0 mm 2 mps 593 mmHg 84%
    07:00 +17°C° 0 mm 2 mps 594 mmHg 83%
    08:00 +18°C° 0.2 mm 2 mps 594 mmHg 78%
    09:00 +19°C° 0.2 mm 2 mps 595 mmHg 73%
    10:00 +21°C° 0.2 mm 2 mps 596 mmHg 68%
    11:00 +21°C° 0.9 mm 2 mps 595 mmHg 71%
    12:00 +21°C° 0.9 mm 2 mps 595 mmHg 74%
    13:00 +21°C° 0.9 mm 2 mps 594 mmHg 76%
    14:00 +20°C° 1.3 mm 2 mps 594 mmHg 79%
    15:00 +20°C° 1.3 mm 1 mps 593 mmHg 82%
    16:00 +20°C° 1.3 mm 1 mps 592 mmHg 85%
    17:00 +19°C° 0.4 mm 1 mps 592 mmHg 88%
    18:00 +18°C° 0.4 mm 1 mps 592 mmHg 91%
    19:00 +16°C° 0.4 mm 1 mps 592 mmHg 93%
    20:00 +15°C° 0 mm 1 mps 592 mmHg 92%
    21:00 +15°C° 0 mm 2 mps 592 mmHg 91%
    22:00 +14°C° 0 mm 2 mps 592 mmHg 90%
    23:00 +14°C° 0 mm 2 mps 592 mmHg 89%

    26 August, Monday

    Time Temperature Precipitation Wind Pressure Humidity
    00:00 +14°C° 0 mm 2 mps 592 mmHg 88%
    01:00 +13°C° 0 mm 2 mps 591 mmHg 87%
    02:00 +13°C° 0 mm 2 mps 591 mmHg 87%
    03:00 +13°C° 0 mm 2 mps 591 mmHg 87%
    04:00 +13°C° 0 mm 2 mps 591 mmHg 87%
    05:00 +14°C° 0 mm 2 mps 592 mmHg 85%
    06:00 +15°C° 0 mm 2 mps 593 mmHg 84%
    07:00 +16°C° 0 mm 2 mps 593 mmHg 83%
    08:00 +18°C° 0.1 mm 2 mps 594 mmHg 77%
    09:00 +19°C° 0.1 mm 2 mps 595 mmHg 71%
    10:00 +21°C° 0.1 mm 2 mps 596 mmHg 65%
    11:00 +21°C° 0.7 mm 2 mps 595 mmHg 70%
    12:00 +20°C° 0.7 mm 2 mps 595 mmHg 74%
    13:00 +20°C° 0.7 mm 2 mps 594 mmHg 79%
    14:00 +20°C° 1.1 mm 1 mps 593 mmHg 81%
    15:00 +20°C° 1.1 mm 1 mps 593 mmHg 83%
    16:00 +19°C° 1.1 mm 1 mps 592 mmHg 86%
    17:00 +18°C° 0.4 mm 1 mps 592 mmHg 87%
    18:00 +16°C° 0.4 mm 1 mps 593 mmHg 89%
    19:00 +16°C° 0.4 mm 1 mps 593 mmHg 90%
    20:00 +16°C° 0.2 mm 1 mps 593 mmHg 90%
    21:00 +16°C° 0.2 mm 1 mps 593 mmHg 89%
    22:00 +16°C° 0.2 mm 2 mps 593 mmHg 89%
    23:00 +15°C° 0 mm 1 mps 593 mmHg 88%
    Show more